DEMHO EDDG-EDLW

Flight info

Callsign DEMHO
Flight time N/A
Altitude
Route
Aircraft D40

Departure

Time 2026-04-22 18:52
Airport Münster Osnabrück Airport (EDDG)

Arrival

Time N/A
Airport Dortmund Airport (EDLW)
Time Latitude Longitude Altitude Speed Heading
2026-04-22 18:45 52.13154 7.68311 159 ft 0 kts 271°
2026-04-22 18:49 52.13186 7.68283 159 ft 12 kts 16°
2026-04-22 18:49 52.13271 7.68312 161 ft 16 kts 341°
2026-04-22 18:49 52.13326 7.68280 162 ft 4 kts 341°
2026-04-22 18:49 52.13328 7.68279 162 ft 0 kts 346°
2026-04-22 18:50 52.13341 7.68272 162 ft 9 kts 344°
2026-04-22 18:51 52.13412 7.68218 161 ft 5 kts 251°
2026-04-22 18:51 52.13337 7.67888 159 ft 63 kts 251°
2026-04-22 18:51 52.13170 7.67070 301 ft 86 kts 256°
2026-04-22 18:51 52.12879 7.66214 558 ft 89 kts 220°
2026-04-22 18:52 52.12276 7.65775 656 ft 108 kts 211°
2026-04-22 18:52 52.11549 7.65627 840 ft 106 kts 165°
2026-04-22 18:52 52.10794 7.66003 948 ft 116 kts 157°
2026-04-22 18:52 52.10013 7.66421 1066 ft 123 kts 171°
2026-04-22 18:53 52.09248 7.65908 1107 ft 133 kts 227°
2026-04-22 18:53 52.08648 7.64637 1011 ft 140 kts 231°
2026-04-22 18:53 52.07897 7.63664 1010 ft 136 kts 211°
2026-04-22 18:53 52.07095 7.62961 928 ft 123 kts 204°
2026-04-22 18:54 52.06345 7.62387 824 ft 122 kts 205°
2026-04-22 18:54 52.05591 7.61779 768 ft 116 kts 206°
2026-04-22 18:54 52.04890 7.61219 929 ft 111 kts 205°
2026-04-22 18:54 52.04163 7.60754 1022 ft 111 kts 197°
2026-04-22 18:55 52.03388 7.60313 1087 ft 124 kts 198°
2026-04-22 18:55 52.02587 7.59711 1120 ft 133 kts 206°
2026-04-22 18:55 52.01833 7.58899 1074 ft 130 kts 215°
2026-04-22 18:55 52.01138 7.58049 1125 ft 121 kts 217°
2026-04-22 18:56 52.00454 7.57222 1263 ft 125 kts 218°
2026-04-22 18:56 51.99774 7.56357 1461 ft 125 kts 197°
2026-04-22 18:56 51.98970 7.55831 1664 ft 125 kts 205°
2026-04-22 18:56 51.98202 7.55189 1883 ft 124 kts 205°
2026-04-22 18:57 51.97411 7.54566 1996 ft 133 kts 199°
2026-04-22 18:57 51.96478 7.54335 2004 ft 133 kts 177°
2026-04-22 18:57 51.95625 7.54339 1996 ft 115 kts 169°
2026-04-22 18:57 51.94869 7.54486 1988 ft 106 kts 167°
2026-04-22 18:58 51.94155 7.54626 1987 ft 101 kts 167°
2026-04-22 18:58 51.93480 7.54756 1989 ft 98 kts 167°
2026-04-22 18:58 51.92817 7.54950 1990 ft 96 kts 159°
2026-04-22 18:58 51.92168 7.55208 1988 ft 95 kts 157°
2026-04-22 18:59 51.91554 7.55587 1990 ft 94 kts 152°
2026-04-22 18:59 51.90943 7.55961 1989 ft 93 kts 152°
2026-04-22 18:59 51.90326 7.56288 1990 ft 94 kts 160°
2026-04-22 18:59 51.89692 7.56527 1988 ft 93 kts 159°
2026-04-22 19:00 51.89065 7.56764 1996 ft 92 kts 159°